Doha, Qatar

4:40 PM +03 on April 28, 2017 (GMT +0300)
Doha International

Weather History for OTBD - November, 2010

Change the Weather History Date:

Tuesday, November 9, 2010

  Actual Average Record
Temperature  
Mean Temperature 80 °F -  
Max Temperature 90 °F 82 °F 95 °F (1999)
Min Temperature 71 °F 65 °F 66 °F (2011)
Cooling Degree Days 16    
Growing Degree Days 30 (Base 50)    
Moisture  
Dew Point 69 °F    
Average Humidity 69    
Maximum Humidity 89    
Minimum Humidity 49    
Precipitation  
Precipitation 0.01 in 0.01 in - ()
Sea Level Pressure  
Sea Level Pressure 30.02 in    
Wind  
Wind Speed 5 mph ()    
Max Wind Speed 24 mph    
Max Gust Speed -    
Visibility 5.8 miles    
Events Rain , Thunderstorm    
Averages and records for this station are not official NWS values.
T = Trace of Precipitation, MM = Missing Value Source: Averaged Metar Reports

Daily Weather History Graph

Daily Weather History Graph

Search for Another Location

Airport or City:

Trip Planner

Search our weather history database for the weather conditions in past years. The results will help you decide how hot, cold, wet, or windy it might be!

Date:

Astronomy

Nov. 09, 2010 Rise Set
Actual Time 5:46 AM +03 4:48 PM +03
Civil Twilight 5:22 AM +03 5:12 PM +03
Nautical Twilight 4:55 AM +03 5:39 PM +03
Astronomical Twilight 4:27 AM +03 6:06 PM +03
Moon 8:50 AM +03 (11/9) 7:37 PM +03 (11/9)
Length of Visible Light 11h 49m
Length of Day
11h 02m
Waxing Crescent, 12% of the Moon is Illuminated
Nov 9
Waxing Crescent
Nov 13
First Quarter
Nov 21
Full
Nov 28
Last Quarter
Dec 5
New

Hourly Weather History & Observations

Time (+03) Temp. Heat Index Dew Point Humidity Pressure Visibility Wind Dir Wind Speed Gust Speed Precip Events Conditions
12:00 AM 80.6 °F 83.9 °F 69.8 °F 70% 29.98 in - North 2.3 mph - N/A   Clear
12:30 AM 80.6 °F 83.9 °F 69.8 °F 70% 29.98 in - North 4.6 mph - N/A   Clear
1:00 AM 78.8 °F - 71.6 °F 78% 29.98 in - North 4.6 mph - N/A   Clear
1:30 AM 80.6 °F 84.6 °F 71.6 °F 74% 29.98 in - North 4.6 mph - N/A   Clear
2:00 AM 80.6 °F 83.9 °F 69.8 °F 70% 29.95 in 6.2 mi NNW 3.5 mph - N/A   Partly Cloudy
2:30 AM 78.8 °F - 69.8 °F 74% 29.95 in 6.2 mi NNW 4.6 mph - N/A   Partly Cloudy
3:00 AM 80 °F - 70 °F 65% 29.98 in 6 mi NNW 3.5 mph - -   Scattered Clouds
3:00 AM 78.8 °F - 69.8 °F 74% 29.98 in 6.2 mi NNW 3.5 mph - N/A   Partly Cloudy
3:30 AM 78.8 °F - 69.8 °F 74% 29.95 in 6.2 mi North 3.5 mph - N/A   Scattered Clouds
4:00 AM 78.8 °F - 69.8 °F 74% 29.98 in 6.2 mi NNW 3.5 mph - N/A   Scattered Clouds
4:30 AM 80.6 °F 83.9 °F 69.8 °F 70% 29.98 in - NNW 3.5 mph - N/A   Clear
5:00 AM 78.8 °F - 69.8 °F 74% 29.98 in - Variable 2.3 mph - N/A   Clear
5:30 AM 78.8 °F - 68.0 °F 69% 29.98 in 6.2 mi Variable 1.2 mph - N/A   Partly Cloudy
6:00 AM 78.8 °F - 69.8 °F 74% 30.01 in 5.6 mi Variable 1.2 mph - N/A   Partly Cloudy
6:30 AM 80.6 °F 83.9 °F 69.8 °F 70% 30.01 in 5.6 mi NNW 3.5 mph - N/A   Scattered Clouds
7:00 AM 80.6 °F 83.9 °F 69.8 °F 70% 30.04 in 5.6 mi Variable 2.3 mph - N/A   Scattered Clouds
7:30 AM 82.4 °F 86.3 °F 69.8 °F 66% 30.04 in 5.6 mi Variable 2.3 mph - N/A   Scattered Clouds
8:00 AM 84.2 °F 89.6 °F 71.6 °F 66% 30.04 in 5.6 mi NNE 4.6 mph - N/A   Scattered Clouds
8:30 AM 86.0 °F 91.8 °F 71.6 °F 62% 30.04 in 5.6 mi NE 3.5 mph - N/A   Partly Cloudy
9:00 AM 86 °F - 71 °F 52% 30.06 in 6 mi 1.2 mph - -   Scattered Clouds
9:00 AM 86.0 °F 91.8 °F 71.6 °F 62% 30.06 in - Variable 1.2 mph - N/A   Clear
9:30 AM 87.8 °F 93.8 °F 71.6 °F 58% 30.04 in 6.2 mi East 6.9 mph - N/A   Partly Cloudy
10:00 AM 87.8 °F 92.6 °F 69.8 °F 55% 30.04 in 6.2 mi ENE 6.9 mph - N/A   Partly Cloudy
10:30 AM 87.8 °F 92.6 °F 69.8 °F 55% 30.04 in 6.2 mi East 8.1 mph - N/A   Partly Cloudy
11:00 AM 89.6 °F 94.7 °F 69.8 °F 52% 30.04 in 6.2 mi East 8.1 mph - N/A   Partly Cloudy
12:00 PM 86.0 °F 90.4 °F 69.8 °F 58% 30.01 in 6.2 mi ESE 8.1 mph - N/A Thunderstorm Thunderstorm
12:30 PM 89.6 °F 93.4 °F 68.0 °F 49% 30.01 in 5.0 mi Variable 2.3 mph - N/A   Scattered Clouds
1:00 PM 87.8 °F 92.6 °F 69.8 °F 55% 29.98 in 6.2 mi North 10.4 mph - N/A   Scattered Clouds
1:30 PM 86.0 °F 90.4 °F 69.8 °F 58% 29.98 in 6.2 mi North 13.8 mph - N/A   Partly Cloudy
2:00 PM 82.4 °F 85.4 °F 68.0 °F 62% 29.98 in 4.3 mi North 19.6 mph - N/A Thunderstorm Thunderstorm
3:00 PM 76 °F - 73 °F 86% 30.04 in 5 mi North 24.2 mph - - Rain , Thunderstorm Thunderstorms and Rain
3:00 PM 77.0 °F - 73.4 °F 89% 30.04 in 5.0 mi North 24.2 mph - N/A Rain , Thunderstorm Thunderstorms and Rain
3:30 PM 73.4 °F - 66.2 °F 78% 30.06 in 3.1 mi NW 19.6 mph - N/A Rain , Thunderstorm Thunderstorms and Rain
4:00 PM 71.6 °F - 66.2 °F 83% 30.04 in 5.0 mi NNE 17.3 mph - N/A Rain , Thunderstorm Thunderstorms and Rain
4:30 PM 75.2 °F - 66.2 °F 73% 30.04 in 6.2 mi NNE 19.6 mph - N/A   Scattered Clouds
5:00 PM 75.2 °F - 66.2 °F 73% 30.01 in 6.2 mi NNE 13.8 mph - N/A   Scattered Clouds
5:30 PM 75.2 °F - 66.2 °F 73% 30.04 in 6.2 mi NW 9.2 mph - N/A   Scattered Clouds
6:00 PM 75.2 °F - 68.0 °F 78% 30.04 in 6.2 mi North 6.9 mph - N/A   Scattered Clouds
6:30 PM 77.0 °F - 68.0 °F 74% 30.04 in - North 8.1 mph - N/A   Clear
7:00 PM 77.0 °F - 69.8 °F 78% 30.04 in - NNW 3.5 mph - N/A   Ice Pellets
7:30 PM 77.0 °F - 69.8 °F 78% 30.04 in - Variable 2.3 mph - N/A   Clear
8:00 PM 78.8 °F - 68.0 °F 69% 30.04 in - North 3.5 mph - N/A   Clear
8:30 PM 77.0 °F - 69.8 °F 78% 30.06 in - NNW 6.9 mph - N/A   Clear
9:00 PM 77 °F - 68 °F 67% 30.08 in 7 mi NNW 5.8 mph - -   Partly Cloudy
9:00 PM 77.0 °F - 68.0 °F 74% 30.06 in - NNW 5.8 mph - N/A   Clear
9:30 PM 77.0 °F - 68.0 °F 74% 30.06 in - NNW 4.6 mph - N/A   Clear
10:00 PM 77.0 °F - 68.0 °F 74% 30.06 in - NNW 4.6 mph - N/A   Clear
10:30 PM 77.0 °F - 66.2 °F 69% 30.06 in - NNW 4.6 mph - N/A   Clear
11:00 PM 77.0 °F - 68.0 °F 74% 30.06 in - WNW 4.6 mph - N/A   Clear
11:30 PM 77.0 °F - 66.2 °F 69% 30.06 in 6.2 mi NNW 5.8 mph - N/A   Partly Cloudy